Location: Sternwarte Stuttgart
(48.7824°N, 9.1965°E)
Time: 09:52:55
(UTC+00:00)

ISS - Visible Passes

Search period start: 28 May 2018 00:00
Search period end: 07 June 2018 00:00
Orbit: 402 x 407 km, 51.6° (Epoch: 28 May)

Date Brightness Start Highest point End Pass type
(mag) Time Alt. Az. Time Alt. Az. Time Alt. Az.
28 May -2.9 20:37:10 10° WNW 20:40:22 48° N 20:43:33 10° ENE visible
28 May -3.9 22:13:46 10° WNW 22:17:03 87° NNE 22:17:42 54° ESE visible
29 May -3.5 21:21:32 10° WNW 21:24:48 65° NNE 21:27:06 18° E visible
29 May -2.1 22:58:09 10° W 22:59:43 23° W 22:59:43 23° W visible
30 May -3.1 20:29:16 10° WNW 20:32:29 54° N 20:35:43 10° E visible
30 May -3.8 22:05:48 10° WNW 22:09:01 55° SSW 22:09:08 55° SSW visible
31 May -3.9 21:13:31 10° WNW 21:16:48 83° SSW 21:18:35 25° ESE visible
31 May -1.4 22:50:34 10° W 22:51:12 13° WSW 22:51:12 13° WSW visible
01 Jun -3.6 20:21:15 10° WNW 20:24:31 72° NNE 20:27:47 10° ESE visible
01 Jun -2.7 21:57:56 10° W 22:00:40 29° SW 22:00:40 29° SW visible
02 Jun -3.4 21:05:31 10° WNW 21:08:40 47° SSW 21:10:09 26° SSE visible
03 Jun -3.8 20:13:09 10° WNW 20:16:26 73° SSW 20:19:40 10° ESE visible
03 Jun -1.7 21:50:26 10° W 21:52:18 15° SW 21:52:18 15° SW visible
04 Jun -2.4 20:57:37 10° W 21:00:22 25° SW 21:01:50 18° S visible
05 Jun -3.0 20:05:06 10° WNW 20:08:11 40° SSW 20:11:17 10° SE visible
06 Jun -1.4 20:50:19 10° WSW 20:51:54 13° SW 20:53:28 10° SSW visible
